DW6598 Weather Reports


time (UTC)temp
F
wind
direction
speed
knots
gust
knots
rain 1hr
in
rain 24hr
in
rain mn
in
humidity
%
barometer
mb
20260504044541 47 129 0.0 0.9 0.00 0.13 0.00 63 1014.0
20260504043038 47 129 0.0 0.9 0.00 0.13 0.00 63 1014.1
20260504041535 46 134 0.0 0.9 0.00 0.13 0.00 64 1014.1
20260504040057 46 134 0.0 1.7 0.00 0.13 0.00 65 1014.1
20260504034534 46 129 0.0 0.9 0.00 0.13 0.13 64 1014.1
20260504033035 48 79 0.0 0.9 0.00 0.13 0.13 61 1014.0
20260504031535 48 79 0.0 0.9 0.00 0.13 0.13 61 1014.1
20260504030031 47 105 0.0 0.0 0.00 0.13 0.13 61 1014.1
20260504024530 48 105 0.0 0.0 0.00 0.13 0.13 60 1014.3
20260504023030 49 105 0.0 0.0 0.00 0.13 0.13 58 1014.4
20260504021530 50 106 0.0 0.0 0.00 0.13 0.13 57 1014.4
20260504020028 50 105 0.0 0.9 0.00 0.13 0.13 57 1014.4
20260504014528 50 105 0.0 0.9 0.00 0.13 0.13 57 1014.5
20260504013027 50 105 0.0 0.9 0.00 0.13 0.13 57 1014.3
20260504011527 51 105 0.0 0.9 0.12 0.13 0.13 57 1014.2
20260504010028 52 139 0.0 1.7 0.12 0.13 0.13 53 1014.2
20260504004538 52 138 0.0 0.9 0.12 0.13 0.13 52 1014.2
20260504003025 53 142 0.0 1.7 0.12 0.13 0.13 51 1014.2
20260504001524 53 134 0.0 1.7 0.00 0.01 0.01 50 1014.2
20260504000024 54 131 0.0 1.7 0.00 0.01 0.01 49 1014.1
20260503234523 55 146 0.9 3.5 0.00 0.01 0.01 48 1014.2
20260503233022 55 135 0.9 3.5 0.00 0.01 0.01 48 1014.4
20260503231520 56 134 0.9 7.0 0.00 0.01 0.01 46 1014.3
20260503230019 57 125 1.7 5.2 0.00 0.01 0.01 47 1014.4
20260503224516 57 113 1.7 8.7 0.00 0.01 0.01 45 1014.4
20260503223015 57 155 2.6 8.7 0.00 0.01 0.01 45 1014.5
20260503221514 57 108 0.9 7.0 0.00 0.01 0.01 48 1014.6
20260503220014 57 135 3.5 9.6 0.00 0.01 0.01 45 1014.7
20260503214513 57 118 4.3 9.6 0.00 0.01 0.01 43 1014.6
20260503213017 58 101 1.7 7.0 0.00 0.01 0.01 44 1014.4
20260503211511 57 131 2.6 8.7 0.00 0.01 0.01 44 1014.5
20260503210009 57 141 2.6 7.0 0.00 0.01 0.01 45 1014.6
20260503204507 58 142 2.6 11.3 0.00 0.01 0.01 45 1014.9
20260503203008 58 141 0.9 6.1 0.00 0.01 0.01 49 1015.0
20260503201503 57 156 3.5 7.0 0.00 0.01 0.01 48 1015.2
20260503200002 56 166 0.9 7.0 0.00 0.01 0.01 48 1015.4
20260503194559 57 125 2.6 10.4 0.00 0.01 0.01 46 1015.5
20260503193111 57 117 3.5 7.0 0.00 0.01 0.01 45 1015.7
20260503191604 57 136 5.2 13.0 0.00 0.01 0.01 46 1015.8
20260503190052 55 124 1.7 7.8 0.00 0.01 0.01 48 1016.2
20260503184549 55 129 1.7 11.3 0.00 0.01 0.01 51 1016.5
20260503183106 55 128 2.6 9.6 0.00 0.01 0.01 46 1016.6
20260503181614 55 153 5.2 10.4 0.00 0.01 0.01 47 1016.8
20260503180045 55 129 1.7 9.6 0.00 0.01 0.01 50 1017.0
20260503174543 55 123 3.5 13.0 0.00 0.01 0.01 48 1017.1
20260503173047 56 96 3.5 7.8 0.00 0.01 0.01 47 1017.3
20260503171539 54 95 1.7 10.4 0.00 0.01 0.01 48 1017.4
20260503090115 34 141 0.0 0.0 0.00 0.00 0.00 89 1017.4
20260503081558 35 141 0.0 0.0 0.00 0.00 0.00 88 1017.3
20260503080106 35 141 0.0 0.0 0.00 0.00 0.00 88 1017.4
20260503071605 34 144 0.0 0.0 0.00 0.00 0.00 88 1017.0
20260503070112 34 144 0.0 0.0 0.00 0.00 0.00 88 1017.0
20260503060113 35 143 0.0 0.0 0.00 0.00 0.00 85 1017.2
20260503054548 35 143 0.0 0.0 0.00 0.00 0.00 85 1017.2
20260503053049 35 143 0.0 6.1 0.00 0.00 0.00 85 1017.2
20260503051547 35 158 0.0 7.8 0.00 0.00 0.00 85 1017.3
20260503050045 35 150 0.0 1.7 0.00 0.00 0.00 84 1017.4